Tracking 19709 objects as of 18-Jun-2019
HD Live streaming from Space Station
objects crossing your sky now

SL-18 DEB

Track SL-18 DEB now!
10-day predictions


NORAD ID: 28950
Int'l Code: 1993-014AB
Perigee: 588.6 km
Apogee: 666.8 km
Inclination: 75.7 °
Period: 97.1 minutes
Semi major axis: 6998 km
RCS: 0.0115 m2 (small)
Launch date: March 25, 1993
Source: Commonwealth of Independent States (former USSR) (CIS)
Launch site: PLESETSK MISSILE AND SPACE COMPLEX (PKMTR)

Note: This is SATELLITE DEBRIS
aabbcc
Your satellite tracking list
Your tracking list is empty




NASA's NSSDC Master Catalog

Two Line Element Set (TLE):
1 28950U 93014AB  19169.14494648  .00001871  00000-0  22775-3 0  9990
2 28950  75.7406  65.0259 0055880 344.7468 169.3050 14.82783159774936
Source of the keplerian elements: AFSPC